Regional Weather Roundup
Issued by NWS Charleston, SC

Current Version | Previous Version | Graphics & Text | Print | Product List | Glossary On
Versions: 1 2 3 4 5 6 7 8 9 10 11 12 13 14 15 16 17 18 19 20 21 22 23 24 25 26 27 28 29 30 31 32 33 34 35 36 37 38 39 40 41 42 43 44 45 46 47 48 49 50
654
ASUS42 KCHS 282213
RWRCHS

REGIONAL WEATHER ROUNDUP
NATIONAL WEATHER SERVICE CHARLESTON SC
600 PM EDT THU APR 28 2016

NOTE: "FAIR" INDICATES FEW OR NO CLOUDS BELOW 12,000 FEET WITH NO
SIGNIFICANT WEATHER AND/OR OBSTRUCTIONS TO VISIBILITY.

NOT ALL STATIONS ARE QUALITY CONTROLLED. USE DATA WITH CAUTION...
ESPECIALLY DEWPOINT OBSERVATIONS.

SCZ027-030-031-034>040-042>050-282300-
...SOUTHEAST SOUTH CAROLINA...

CITY           SKY/WX    TMP DP  RH WIND       PRES   REMARKS
N CHARLESTON   TSTM      69  62  78 W3        29.93R
WATERFRONT PRK   N/A     73  68  84 W7        29.92R
MOUNT PLEASANT LGT RAIN  72  68  88 S5        29.93R
JOHNS ISLAND   FAIR      75  68  78 VRB3G13   29.93R
PINOPOLIS        N/A     86  68  54 S7        29.82F
MONCKS CORNER  HVY RAIN  70  61  73 S9G24     29.91R
SUMMERVILLE    MOCLDY    72  70  94 SE5       29.93R
BEAUFORT MCAS  CLOUDY    80  69  69 VRB5      29.92R
BEAUFORT ARPT  FAIR      77  68  73 S6        29.92R
HILTON HEAD IS PTSUNNY   79  70  73 S10       29.94R
WALTERBORO     MOCLDY    81  68  65 S9        29.92R
ALLENDALE      FAIR      81  70  69 VRB7      29.91R

...SOUTHERN MIDLANDS AND PEE DEE...

CITY           SKY/WX    TMP DP  RH WIND       PRES   REMARKS
GEORGETOWN     MOCLDY    72  66  83 SW12      29.93R
KINGSTREE      MOCLDY    86  64  48 S5        29.86S
ORANGEBURG     MOSUNNY   85  65  51 W12       29.88S
BARNWELL       FAIR      82  72  69 S9        29.91R
AIKEN          FAIR      84  63  48 SW10G21   29.92R
MANNING        NOT AVBL
COLUMBIA       MOSUNNY   87  63  44 SW13      29.84F
SUMTER         MOSUNNY   86  65  48 SW16      29.83F
FLORENCE       SUNNY     85  66  53 SW12      29.85F
MYRTLE BEACH   SUNNY     79  63  57 S16       29.90F
N MYRTLE BEACH SUNNY     74  68  81 S15G25    29.89F

$$

GAZ063-065-086>088-099>101-113>116-118-119-134>141-150-282300-
...SOUTHEAST GEORGIA...

CITY           SKY/WX    TMP DP  RH WIND       PRES   REMARKS
SAVANNAH ARPT  CLOUDY    82  66  58 SW8       29.93R
HUNTER AAF     CLOUDY    83  70  64 W7        29.92R
FORT STEWART   CLOUDY    81  66  61 W9        29.93R
STATESBORO     CLOUDY    80  72  77 W13       29.93S
SYLVANIA       CLOUDY    82  73  74 W6        29.93S
CLAXTON        MOCLDY    76  71  82 W6        29.95R

...CSRA...CENTRAL AND FAR SOUTHEAST GEORGIA...

CITY           SKY/WX    TMP DP  RH WIND       PRES   REMARKS
THOMSON        SUNNY     87  67  51 SW8       29.94R HX  90
AUGUSTA-BUSH   MOSUNNY   86  66  51 SW14G23   29.87S
AUGUSTA-DANIEL MOSUNNY   87  63  44 W8        29.89S
SWAINSBORO     FAIR      73  70  88 S9        29.95S
VIDALIA        PTSUNNY   75  70  83 CALM      29.95S
EASTMAN        FAIR      80  69  68 SW6       29.97R
HAZLEHURST     FAIR      84  69  59 SW5       29.94R
ALMA           CLOUDY    82  69  64 S5        29.95R
WAYCROSS       CLOUDY    78  70  75 CALM      29.96S
JESUP          FAIR      82  72  69 SW5       29.97R
BAXLEY         FAIR      81  72  74 SE3       29.96R
BRUNSWICK      CLOUDY    86  68  54 W9G18     29.96R
SAINT SIMONS   TSTM      75  67  76 SW14G23   29.97R

$$

SCZ027-028-034-036>038-045-046-048>050-GAZ119-141-282300-
...LAKE AND SUPPLEMENTAL COASTAL OBSERVATIONS...

STATION/POSITION TIME  TEMP    WIND        PRES    WAVE   SWELL
                       AIR SEA DIR/SP/G            HT/PER HT/PER/DIR
                 (UTC) (F)     (DEG/KT/KT) (MB)    (FT/S) (FT/S/D)
WINYAH BAY       2045   79     190/ 12     1012.0
LAKE MURRAY      2100   82     230/ 11/ 15 1010.5F
ACE BASIN NERRS  NOT AVBL
FORT PULASKI     2100   76 73  190/  7/ 11 1013.4F
SAPELO ISLAND    2100   78     140/  5     1013.0F

$$

ANZ835-935-AMZ111-154-330-350-352-354-370-450-454-472-282300-
...C-MAN AND BUOY OBSERVATIONS...

STATION/POSITION TIME  TEMP    WIND        PRES    WAVE   SWELL
                       AIR SEA DIR/SP/G            HT/PER HT/PER/DIR
                 (UTC) (F)     (DEG/KT/KT) (MB)    (FT/S) (FT/S/D)
BUOY 41004       2150   72 71  180/  8/ 10 1013.2F   3/ 5   2/ 5
BUOY 41008       NOT AVBL
FOLLY BEACH CMAN 2100   72     210/ 10/ 11 1013.5F
CAPERS NEARSHORE 2108   71 70  220/ 14/ 17 1013.2R
FRIPP NEARSHORE  2108   73 72  190/ 12/ 14 1012.3S


STATION/POSITION TIME  TEMP    WIND        PRES    WAVE   SWELL
                       AIR SEA DIR/SP/G            HT/PER HT/PER/DIR
                 (UTC) (F)     (DEG/KT/KT) (MB)    (FT/S) (FT/S/D)
5E ST. MARYS GA  2121      72                N/A     2/ 4
FRYING PAN BUOY  2100   72 70  200/ 12/ 14 1013.0F
BUOY 41025       2150   74 72  200/ 17/ 21 1011.8F   3/ 5   2/ 60/11
CAPE LOOKOUT NC  2100   71     210/ 15/ 19 1011.9F
BUOY 41002       2150   72 71  170/ 10/ 10 1016.0F   2/11   2/ 80/11
BUOY 41010       2120   76 77  200/  6/  8 1016.0R
ST AUGUSTINE FL  2200   73 72  170/  9/ 10 1015.1R


$$




USA.gov is the U.S. government's official web portal to all federal, state and local government web resources and services.